Orbital Elements at Epoch 2459000.5 (2020-May-31.0) TDB
Reference: JPL 17 (heliocentric ecliptic J2000)
Element | Value | Uncertainty (1-sigma) | Units |
e | .1492446395760579 | 4.4481e-08 | |
a | 2.237011749008753 | 1.3515e-08 | au |
q | 1.903149736800535 | 9.6986e-08 | au |
i | 5.511381887545983 | 4.9714e-06 | deg |
node | 113.9719128590389 | 6.5314e-05 | deg |
peri | 165.0506870173677 | 6.9009e-05 | deg |
M | 219.3795985202827 | 2.1893e-05 | deg |
tp | 2459477.860695105509 (2021-Sep-20.36069511) | 7.5056e-05 | TDB |
period | 1222.083342314808 3.35 | 1.1075e-05 3.032e-08 | d yr |
n | .294578927258845 | 2.6695e-09 | deg/d |
Q | 2.570873761216971 | 1.5532e-08 | au |
|
| | Orbit Determination Parameters
Additional Information
|